,,,PA_Meas_PMT16A,,PR_Meas_QMR101_102,,RH_Meas_QMH101,,SR_Meas_QMS101,,TA_Meas_QMH101,,GenWind,,GenWind,
date,time,status,PA,status,PR,status,RH,status,SR,status,TA,status,DirAvg,status,SpdAvg,
2011-01-16, 00:00:04,VALID,1002.54,VALID,0,VALID,98.527,VALID,0,VALID,25.9213,VALID,204,VALID,0.439453,
2011-01-16, 00:01:04,VALID,1002.53,VALID,0,VALID,99.4196,VALID,0,VALID,25.9038,VALID,204,VALID,0.291797,
2011-01-16, 00:02:04,VALID,1002.53,VALID,0,VALID,100.93,VALID,0,VALID,25.8259,VALID,204,VALID,0,
2011-01-16, 00:03:04,VALID,1002.51,VALID,0,VALID,102.883,VALID,0,VALID,25.746,VALID,204,VALID,0,
2011-01-16, 00:04:04,VALID,1002.51,VALID,0,VALID,104,VALID,0,VALID,25.709,VALID,204,VALID,0,
2011-01-16, 00:05:04,VALID,1002.5,VALID,0,INVALID,112.824,VALID,0,VALID,25.6506,VALID,204,VALID,0,
2011-01-16, 00:06:04,VALID,1002.49,VALID,0,INVALID,125.358,VALID,0,VALID,25.5921,VALID,204,VALID,0.0324219,
2011-01-16, 00:07:04,VALID,1002.52,VALID,0,INVALID,137.709,VALID,0,VALID,25.5318,VALID,204,VALID,0,
2011-01-16, 00:08:04,VALID,1002.53,VALID,0,INVALID,158.002,VALID,0,VALID,25.4772,VALID,204,VALID,0,
2011-01-16, 00:09:04,VALID,1002.51,VALID,0,INVALID,163.525,VALID,0,VALID,25.3974,VALID,204,VALID,0,
2011-01-16, 00:10:04,VALID,1002.51,VALID,0,INVALID,163.556,VALID,0,VALID,25.3779,VALID,204,VALID,0,
2011-01-16, 00:11:04,VALID,1002.54,VALID,0,INVALID,163.578,VALID,0,VALID,25.3195,VALID,204,VALID,0.297656,
2011-01-16, 00:12:04,VALID,1002.56,VALID,0,INVALID,163.571,VALID,0,VALID,25.2806,VALID,204,VALID,0,
2011-01-16, 00:13:04,VALID,1002.55,VALID,0,INVALID,163.601,VALID,0,VALID,25.2027,VALID,204,VALID,0.0390625,
2011-01-16, 00:14:04,VALID,1002.56,VALID,0,INVALID,163.594,VALID,0,VALID,25.1442,VALID,204,VALID,0,
2011-01-16, 00:15:04,VALID,1002.57,VALID,0,INVALID,163.594,VALID,0.100563,VALID,25.1034,VALID,204,VALID,0.000390625,
2011-01-16, 00:16:04,VALID,1002.58,VALID,0,INVALID,163.617,VALID,0,VALID,25.0858,VALID,204,VALID,0.337109,
2011-01-16, 00:17:04,VALID,1002.58,VALID,0,INVALID,163.601,VALID,0,VALID,25.0663,VALID,204,VALID,0.189453,
2011-01-16, 00:18:04,VALID,1002.58,VALID,0,INVALID,163.617,VALID,0,VALID,25.045,VALID,204,VALID,0.0167969,
2011-01-16, 00:19:04,VALID,1002.56,VALID,0,INVALID,163.601,VALID,0,VALID,25.0469,VALID,204,VALID,0,
2011-01-16, 00:20:04,VALID,1002.58,VALID,0,INVALID,163.617,VALID,0,VALID,24.9866,VALID,204,VALID,0.105859,
2011-01-16, 00:21:04,VALID,1002.55,VALID,0,INVALID,163.632,VALID,0,VALID,24.9476,VALID,198,VALID,0.470703,
2011-01-16, 00:22:04,VALID,1002.58,VALID,0,INVALID,163.639,VALID,0.100563,VALID,24.9106,VALID,196,VALID,0.511328,
2011-01-16, 00:23:04,VALID,1002.56,VALID,0,INVALID,163.624,VALID,0,VALID,24.8308,VALID,194,VALID,0.499609,
2011-01-16, 00:24:04,VALID,1002.52,VALID,0,INVALID,163.617,VALID,0,VALID,24.8113,VALID,194,VALID,0.383203,
2011-01-16, 00:25:04,VALID,1002.51,VALID,0,INVALID,163.639,VALID,0,VALID,24.7761,VALID,194,VALID,0.197656,
2011-01-16, 00:26:04,VALID,1002.52,VALID,0,INVALID,163.624,VALID,0,VALID,24.7177,VALID,194,VALID,0.0863281,
2011-01-16, 00:27:04,VALID,1002.48,VALID,0,INVALID,163.617,VALID,0,VALID,24.6574,VALID,194,VALID,0.259375,
2011-01-16, 00:28:04,VALID,1002.45,VALID,0,INVALID,163.639,VALID,0,VALID,24.6398,VALID,194,VALID,0.394141,
2011-01-16, 00:29:04,VALID,1002.43,VALID,0,INVALID,163.624,VALID,0,VALID,24.6009,VALID,194,VALID,0.405859,
2011-01-16, 00:30:04,VALID,1002.44,VALID,0,INVALID,163.639,VALID,0,VALID,24.562,VALID,194,VALID,0.482812,
2011-01-16, 00:31:04,VALID,1002.42,VALID,0,INVALID,163.639,VALID,0,VALID,24.5425,VALID,194,VALID,0.460547,
2011-01-16, 00:32:04,VALID,1002.41,VALID,0,INVALID,163.655,VALID,0,VALID,24.5035,VALID,194,VALID,0.3125,
2011-01-16, 00:33:04,VALID,1002.41,VALID,0,INVALID,163.639,VALID,0,VALID,24.4451,VALID,194,VALID,0.163281,
2011-01-16, 00:34:04,VALID,1002.4,VALID,0,INVALID,163.647,VALID,0,VALID,24.4257,VALID,194,VALID,0.111328,
2011-01-16, 00:35:04,VALID,1002.37,VALID,0,INVALID,163.662,VALID,0,VALID,24.3654,VALID,194,VALID,0.0851562,
2011-01-16, 00:36:04,VALID,1002.36,VALID,0,INVALID,163.655,VALID,0,VALID,24.3673,VALID,194,VALID,0.152344,
2011-01-16, 00:37:04,VALID,1002.35,VALID,0,INVALID,163.685,VALID,0,VALID,24.3459,VALID,194,VALID,0.351563,
2011-01-16, 00:38:04,VALID,1002.35,VALID,0,INVALID,163.639,VALID,0,VALID,24.3867,VALID,194,VALID,0.1875,
2011-01-16, 00:39:04,VALID,1002.32,VALID,0,INVALID,163.647,VALID,0,VALID,24.3849,VALID,194,VALID,0.132422,
2011-01-16, 00:40:04,VALID,1002.32,VALID,0,INVALID,163.655,VALID,0,VALID,24.4025,VALID,194,VALID,0.278516,
2011-01-16, 00:41:04,VALID,1002.28,VALID,0,INVALID,163.662,VALID,0.100563,VALID,24.3812,VALID,194,VALID,0,
2011-01-16, 00:42:04,VALID,1002.3,VALID,0,INVALID,163.639,VALID,0.100563,VALID,24.4238,VALID,194,VALID,0.313281,
2011-01-16, 00:43:04,VALID,1002.29,VALID,0,INVALID,163.655,VALID,0.100563,VALID,24.383,VALID,194,VALID,0.185937,
2011-01-16, 00:44:04,VALID,1002.29,VALID,0,INVALID,163.685,VALID,0,VALID,24.3636,VALID,194,VALID,0.186328,
2011-01-16, 00:45:04,VALID,1002.29,VALID,0,INVALID,163.693,VALID,0,VALID,24.4043,VALID,178,VALID,0.469922,
2011-01-16, 00:46:04,VALID,1002.29,VALID,0,INVALID,163.662,VALID,0.100563,VALID,24.383,VALID,119,VALID,0.394141,
2011-01-16, 00:47:04,VALID,1002.26,VALID,0,INVALID,163.67,VALID,0.100563,VALID,24.4025,VALID,101,VALID,0.258594,
2011-01-16, 00:48:04,VALID,1002.29,VALID,0,INVALID,163.639,VALID,0.100563,VALID,24.383,VALID,101,VALID,0.581641,
2011-01-16, 00:49:04,VALID,1002.26,VALID,0,INVALID,163.678,VALID,0,VALID,24.383,VALID,101,VALID,0.437109,
2011-01-16, 00:50:04,VALID,1002.27,VALID,0,INVALID,163.662,VALID,0,VALID,24.3441,VALID,101,VALID,0.250781,
2011-01-16, 00:51:04,VALID,1002.27,VALID,0,INVALID,163.67,VALID,0.100563,VALID,24.3228,VALID,101,VALID,0.115234,
2011-01-16, 00:52:04,VALID,1002.26,VALID,0,INVALID,163.662,VALID,0.100563,VALID,24.3441,VALID,101,VALID,0.3625,
2011-01-16, 00:53:04,VALID,1002.26,VALID,0,INVALID,163.701,VALID,0.100563,VALID,24.3246,VALID,101,VALID,0.370703,
2011-01-16, 00:54:04,VALID,1002.24,VALID,0,INVALID,163.678,VALID,0.100563,VALID,24.3052,VALID,101,VALID,0.239453,
2011-01-16, 00:55:04,VALID,1002.24,VALID,0,INVALID,163.662,VALID,0,VALID,24.3265,VALID,101,VALID,0.156641,
2011-01-16, 00:56:04,VALID,1002.25,VALID,0,INVALID,163.678,VALID,0,VALID,24.3052,VALID,101,VALID,0.0359375,
2011-01-16, 00:57:04,VALID,1002.22,VALID,0,INVALID,163.685,VALID,0,VALID,24.3265,VALID,101,VALID,0.0117188,
2011-01-16, 00:58:04,VALID,1002.25,VALID,0,INVALID,163.655,VALID,0,VALID,24.3265,VALID,101,VALID,0.00195313,
2011-01-16, 00:59:04,VALID,1002.22,VALID,0,INVALID,163.662,VALID,0,VALID,24.3265,VALID,101,VALID,0.149219,
2011-01-16, 01:00:04,VALID,1002.18,VALID,0,INVALID,163.678,VALID,0,VALID,24.3265,VALID,101,VALID,0.00351562,
2011-01-16, 01:01:04,VALID,1002.19,VALID,0,INVALID,163.678,VALID,0,VALID,24.3052,VALID,101,VALID,0.141016,
2011-01-16, 01:02:04,VALID,1002.18,VALID,0,INVALID,163.655,VALID,0,VALID,24.3459,VALID,101,VALID,0.228906,
2011-01-16, 01:03:04,VALID,1002.16,VALID,0,INVALID,163.662,VALID,0,VALID,24.3265,VALID,100,VALID,0.430078,
2011-01-16, 01:04:04,VALID,1002.19,VALID,0,INVALID,163.67,VALID,0,VALID,24.3265,VALID,34,VALID,0.583203,
2011-01-16, 01:05:04,VALID,1002.2,VALID,0,INVALID,163.685,VALID,0,VALID,24.307,VALID,21,VALID,0.648438,
2011-01-16, 01:06:04,VALID,1002.17,VALID,0,INVALID,163.647,VALID,0,VALID,24.3088,VALID,20,VALID,0.645703,
2011-01-16, 01:07:04,VALID,1002.18,VALID,0,INVALID,163.685,VALID,0,VALID,24.2662,VALID,13,VALID,0.432813,
2011-01-16, 01:08:04,VALID,1002.18,VALID,0,INVALID,163.655,VALID,0,VALID,24.2681,VALID,13,VALID,0.0691406,
2011-01-16, 01:09:04,VALID,1002.13,VALID,0,INVALID,163.67,VALID,0,VALID,24.2662,VALID,13,VALID,0,
2011-01-16, 01:10:04,VALID,1002.13,VALID,0,INVALID,163.693,VALID,0,VALID,24.2681,VALID,13,VALID,0.275781,
2011-01-16, 01:11:04,VALID,1002.12,VALID,0,INVALID,163.67,VALID,0,VALID,24.2291,VALID,13,VALID,0.140234,
2011-01-16, 01:12:04,VALID,1002.12,VALID,0,INVALID,163.693,VALID,0,VALID,24.2291,VALID,13,VALID,0.0601562,
2011-01-16, 01:13:04,VALID,1002.09,VALID,0,INVALID,163.678,VALID,0,VALID,24.2097,VALID,13,VALID,0,
2011-01-16, 01:14:04,VALID,1002.09,VALID,0,INVALID,163.685,VALID,0,VALID,24.1902,VALID,13,VALID,0,
2011-01-16, 01:15:04,VALID,1002.09,VALID,0,INVALID,163.693,VALID,0,VALID,24.1884,VALID,13,VALID,0.0777344,
2011-01-16, 01:16:04,VALID,1002.07,VALID,0,INVALID,163.655,VALID,0,VALID,24.231,VALID,13,VALID,0.0757812,
2011-01-16, 01:17:04,VALID,1002.07,VALID,0,INVALID,163.701,VALID,0,VALID,24.2097,VALID,13,VALID,0.271484,
2011-01-16, 01:18:04,VALID,1002.07,VALID,0,INVALID,163.685,VALID,0,VALID,24.2078,VALID,13,VALID,0.471484,
2011-01-16, 01:19:04,VALID,1002.05,VALID,0,INVALID,163.662,VALID,0,VALID,24.2097,VALID,13,VALID,0.495703,
2011-01-16, 01:20:04,VALID,1002.07,VALID,0,INVALID,163.67,VALID,0,VALID,24.1707,VALID,13,VALID,0.391406,
2011-01-16, 01:21:04,VALID,1002.06,VALID,0,INVALID,163.662,VALID,0,VALID,24.1513,VALID,13,VALID,0.359375,
2011-01-16, 01:22:04,VALID,1002.07,VALID,0,INVALID,163.693,VALID,0,VALID,24.1318,VALID,13,VALID,0.405078,
2011-01-16, 01:23:04,VALID,1002.07,VALID,0,INVALID,163.708,VALID,0,VALID,24.1318,VALID,13,VALID,0.402734,
2011-01-16, 01:24:04,VALID,1002.06,VALID,0,INVALID,163.678,VALID,0,VALID,24.1336,VALID,13,VALID,0.274609,
2011-01-16, 01:25:04,VALID,1002.06,VALID,0,INVALID,163.67,VALID,0,VALID,24.1123,VALID,13,VALID,0.23125,
2011-01-16, 01:26:04,VALID,1002.04,VALID,0,INVALID,163.693,VALID,0,VALID,24.091,VALID,13,VALID,0.415625,
2011-01-16, 01:27:04,VALID,1002.03,VALID,0,INVALID,163.678,VALID,0,VALID,24.1318,VALID,13,VALID,0.31875,
2011-01-16, 01:28:04,VALID,1002.01,VALID,0,INVALID,163.678,VALID,0,VALID,24.0716,VALID,13,VALID,0.145703,
2011-01-16, 01:29:04,VALID,1002,VALID,0,INVALID,163.708,VALID,0,VALID,24.0716,VALID,13,VALID,0.158203,
2011-01-16, 01:30:04,VALID,1001.97,VALID,0,INVALID,163.685,VALID,0,VALID,24.0326,VALID,13,VALID,0.0277344,
2011-01-16, 01:31:04,VALID,1001.97,VALID,0,INVALID,163.723,VALID,0,VALID,24.0734,VALID,13,VALID,0.298047,
2011-01-16, 01:32:04,VALID,1001.96,VALID,0,INVALID,163.693,VALID,0,VALID,24.0539,VALID,12,VALID,0.494141,
2011-01-16, 01:33:04,VALID,1001.97,VALID,0,INVALID,163.685,VALID,0,VALID,24.0539,VALID,7,VALID,0.511719,
2011-01-16, 01:34:04,VALID,1001.94,VALID,0,INVALID,163.678,VALID,0,VALID,24.0734,VALID,7,VALID,0.236719,
2011-01-16, 01:35:04,VALID,1001.9,VALID,0,INVALID,163.708,VALID,0,VALID,24.0539,VALID,7,VALID,0.166016,
2011-01-16, 01:36:04,VALID,1001.88,VALID,0,INVALID,163.701,VALID,0,VALID,24.0539,VALID,7,VALID,0.00820312,
2011-01-16, 01:37:04,VALID,1001.87,VALID,0,INVALID,163.693,VALID,0,VALID,24.0132,VALID,7,VALID,0.269531,
2011-01-16, 01:38:04,VALID,1001.87,VALID,0,INVALID,163.716,VALID,0,VALID,23.9955,VALID,7,VALID,0.451172,
2011-01-16, 01:39:04,VALID,1001.86,VALID,0,INVALID,163.685,VALID,0.100563,VALID,23.9548,VALID,7,VALID,0.553906,
2011-01-16, 01:40:04,VALID,1001.82,VALID,0,INVALID,163.701,VALID,0,VALID,23.9371,VALID,6,VALID,0.702734,
2011-01-16, 01:41:04,VALID,1001.81,VALID,0,INVALID,163.708,VALID,0,VALID,23.9159,VALID,6,VALID,0.616406,
2011-01-16, 01:42:04,VALID,1001.79,VALID,0,INVALID,163.693,VALID,0,VALID,23.8964,VALID,6,VALID,0.512891,
2011-01-16, 01:43:04,VALID,1001.75,VALID,0,INVALID,163.701,VALID,0,VALID,23.8964,VALID,6,VALID,0.448828,
2011-01-16, 01:44:04,VALID,1001.77,VALID,0,INVALID,163.723,VALID,0,VALID,23.9159,VALID,6,VALID,0.513672,
2011-01-16, 01:45:04,VALID,1001.75,VALID,0,INVALID,163.716,VALID,0,VALID,23.9371,VALID,6,VALID,0.421484,
2011-01-16, 01:46:04,VALID,1001.72,VALID,0,INVALID,163.701,VALID,0,VALID,23.9159,VALID,6,VALID,0.276563,
2011-01-16, 01:47:04,VALID,1001.72,VALID,0,INVALID,163.708,VALID,0,VALID,23.9371,VALID,6,VALID,0,
2011-01-16, 01:48:04,VALID,1001.67,VALID,0,INVALID,163.701,VALID,0,VALID,23.9159,VALID,6,VALID,0,
2011-01-16, 01:49:04,VALID,1001.7,VALID,0,INVALID,163.716,VALID,0,VALID,23.8964,VALID,6,VALID,0.075,
2011-01-16, 01:50:04,VALID,1001.64,VALID,0,INVALID,163.678,VALID,0,VALID,23.8769,VALID,6,VALID,0.211719,
2011-01-16, 01:51:04,VALID,1001.6,VALID,0,INVALID,163.67,VALID,0,VALID,23.8769,VALID,6,VALID,0.172266,
2011-01-16, 01:52:04,VALID,1001.59,VALID,0,INVALID,163.701,VALID,0,VALID,23.8769,VALID,6,VALID,0.00195313,
2011-01-16, 01:53:04,VALID,1001.56,VALID,0,INVALID,163.708,VALID,0,VALID,23.8575,VALID,6,VALID,0,
2011-01-16, 01:54:04,VALID,1001.55,VALID,0,INVALID,163.708,VALID,0,VALID,23.8787,VALID,6,VALID,0,
2011-01-16, 01:55:04,VALID,1001.48,VALID,0,INVALID,163.701,VALID,0,VALID,23.8593,VALID,6,VALID,0,
2011-01-16, 01:56:04,VALID,1001.49,VALID,0,INVALID,163.701,VALID,0,VALID,23.8575,VALID,6,VALID,0,
2011-01-16, 01:57:04,VALID,1001.42,VALID,0,INVALID,163.731,VALID,0,VALID,23.8362,VALID,6,VALID,0.254297,
2011-01-16, 01:58:04,VALID,1001.4,VALID,0,INVALID,163.716,VALID,0,VALID,23.8787,VALID,6,VALID,0.339063,
2011-01-16, 01:59:04,VALID,1001.38,VALID,0,INVALID,163.708,VALID,0,VALID,23.8593,VALID,6,VALID,0.330469,
2011-01-16, 02:00:04,VALID,1001.35,VALID,0,INVALID,163.731,VALID,0,VALID,23.8203,VALID,6,VALID,0.346875,
2011-01-16, 02:01:04,VALID,1001.34,VALID,0,INVALID,163.708,VALID,0,VALID,23.8009,VALID,6,VALID,0.354688,
2011-01-16, 02:02:04,VALID,1001.3,VALID,0,INVALID,163.723,VALID,0,VALID,23.7407,VALID,6,VALID,0.284375,
2011-01-16, 02:03:04,VALID,1001.28,VALID,0,INVALID,163.731,VALID,0,VALID,23.7619,VALID,6,VALID,0.388672,
2011-01-16, 02:04:04,VALID,1001.26,VALID,0,INVALID,163.731,VALID,0,VALID,23.723,VALID,6,VALID,0.380469,
2011-01-16, 02:05:04,VALID,1001.25,VALID,0,INVALID,163.731,VALID,0,VALID,23.6628,VALID,6,VALID,0.396875,
2011-01-16, 02:06:04,VALID,1001.26,VALID,0,INVALID,163.693,VALID,0,VALID,23.7035,VALID,6,VALID,0.371875,
2011-01-16, 02:07:04,VALID,1001.22,VALID,0,INVALID,163.739,VALID,0,VALID,23.723,VALID,6,VALID,0.600781,
2011-01-16, 02:08:04,VALID,1001.22,VALID,0,INVALID,163.731,VALID,0,VALID,23.7407,VALID,6,VALID,0.63125,
2011-01-16, 02:09:04,VALID,1001.21,VALID,0,INVALID,163.739,VALID,0,VALID,23.7212,VALID,6,VALID,0.431641,
2011-01-16, 02:10:04,VALID,1001.2,VALID,0,INVALID,163.708,VALID,0,VALID,23.7035,VALID,6,VALID,0.544531,
2011-01-16, 02:11:04,VALID,1001.17,VALID,0,INVALID,163.708,VALID,0,VALID,23.6628,VALID,6,VALID,0.530078,
2011-01-16, 02:12:04,VALID,1001.13,VALID,0,INVALID,163.723,VALID,0,VALID,23.6434,VALID,6,VALID,0.423828,
2011-01-16, 02:13:04,VALID,1001.1,VALID,0,INVALID,163.708,VALID,0,VALID,23.6628,VALID,6,VALID,0.482031,
2011-01-16, 02:14:04,VALID,1001.08,VALID,0,INVALID,163.693,VALID,0,VALID,23.6823,VALID,6,VALID,0.446875,
2011-01-16, 02:15:04,VALID,1001.09,VALID,0,INVALID,163.731,VALID,0,VALID,23.7035,VALID,6,VALID,0.54375,
2011-01-16, 02:16:04,VALID,1001.07,VALID,0,INVALID,163.708,VALID,0,VALID,23.6823,VALID,6,VALID,0.628125,
2011-01-16, 02:17:04,VALID,1001.05,VALID,0,INVALID,163.731,VALID,0,VALID,23.7017,VALID,6,VALID,0.644531,
2011-01-16, 02:18:04,VALID,1001.02,VALID,0,INVALID,163.739,VALID,0,VALID,23.7017,VALID,6,VALID,0.515234,
2011-01-16, 02:19:04,VALID,1000.98,VALID,0,INVALID,163.723,VALID,0,VALID,23.661,VALID,6,VALID,0.560156,
2011-01-16, 02:20:04,VALID,1000.97,VALID,0,INVALID,163.723,VALID,0,VALID,23.6628,VALID,6,VALID,0.609766,
2011-01-16, 02:21:04,VALID,1000.97,VALID,0,INVALID,163.754,VALID,0,VALID,23.6452,VALID,6,VALID,0.571875,
2011-01-16, 02:22:04,VALID,1000.97,VALID,0,INVALID,163.701,VALID,0,VALID,23.6239,VALID,6,VALID,0.480469,
2011-01-16, 02:23:04,VALID,1000.91,VALID,0,INVALID,163.701,VALID,0,VALID,23.6239,VALID,6,VALID,0.421484,
2011-01-16, 02:24:04,VALID,1000.9,VALID,0,INVALID,163.708,VALID,0,VALID,23.6628,VALID,6,VALID,0.291016,
2011-01-16, 02:25:04,VALID,1000.86,VALID,0,INVALID,163.708,VALID,0,VALID,23.7035,VALID,6,VALID,0.0113281,
2011-01-16, 02:26:04,VALID,1000.86,VALID,0,INVALID,163.708,VALID,0,VALID,23.7017,VALID,6,VALID,0,
2011-01-16, 02:27:04,VALID,1000.85,VALID,0,INVALID,163.716,VALID,0,VALID,23.723,VALID,6,VALID,0,
2011-01-16, 02:28:04,VALID,1000.84,VALID,0,INVALID,163.731,VALID,0,VALID,23.7035,VALID,6,VALID,0,
2011-01-16, 02:29:04,VALID,1000.83,VALID,0,INVALID,163.746,VALID,0,VALID,23.6628,VALID,6,VALID,0,
2011-01-16, 02:30:04,VALID,1000.85,VALID,0,INVALID,163.701,VALID,0,VALID,23.6628,VALID,6,VALID,0,
2011-01-16, 02:31:04,VALID,1000.85,VALID,0,INVALID,163.716,VALID,0,VALID,23.6823,VALID,6,VALID,0,
2011-01-16, 02:32:04,VALID,1000.86,VALID,0,INVALID,163.708,VALID,0,VALID,23.6823,VALID,6,VALID,0,
2011-01-16, 02:33:04,VALID,1000.88,VALID,0,INVALID,163.708,VALID,0,VALID,23.6823,VALID,6,VALID,0.025,
2011-01-16, 02:34:04,VALID,1000.89,VALID,0,INVALID,163.723,VALID,0,VALID,23.6823,VALID,6,VALID,0.232031,
2011-01-16, 02:35:04,VALID,1000.9,VALID,0,INVALID,163.708,VALID,0.100563,VALID,23.6823,VALID,6,VALID,0.1375,
2011-01-16, 02:36:04,VALID,1000.93,VALID,0,INVALID,163.701,VALID,0,VALID,23.7212,VALID,6,VALID,0.0886719,
2011-01-16, 02:37:04,VALID,1000.91,VALID,0,INVALID,163.693,VALID,0,VALID,23.7212,VALID,6,VALID,0.226563,
2011-01-16, 02:38:04,VALID,1000.86,VALID,0,INVALID,163.731,VALID,0.100563,VALID,23.7407,VALID,6,VALID,0.0195313,
2011-01-16, 02:39:04,VALID,1000.9,VALID,0,INVALID,163.716,VALID,0,VALID,23.7407,VALID,6,VALID,0,
2011-01-16, 02:40:04,VALID,1000.9,VALID,0,INVALID,163.731,VALID,0,VALID,23.7194,VALID,6,VALID,0,
2011-01-16, 02:41:04,VALID,1000.84,VALID,0,INVALID,163.685,VALID,0,VALID,23.7212,VALID,6,VALID,0,
2011-01-16, 02:42:04,VALID,1000.84,VALID,0,INVALID,163.708,VALID,0.100563,VALID,23.7425,VALID,6,VALID,0,
2011-01-16, 02:43:04,VALID,1000.82,VALID,0,INVALID,163.723,VALID,0,VALID,23.7017,VALID,6,VALID,0,
2011-01-16, 02:44:04,VALID,1000.8,VALID,0,INVALID,163.731,VALID,0,VALID,23.7017,VALID,6,VALID,0,
2011-01-16, 02:45:04,VALID,1000.79,VALID,0,INVALID,163.708,VALID,0,VALID,23.7017,VALID,6,VALID,0,
2011-01-16, 02:46:04,VALID,1000.78,VALID,0,INVALID,163.746,VALID,0.100563,VALID,23.661,VALID,6,VALID,0,
2011-01-16, 02:47:04,VALID,1000.75,VALID,0,INVALID,163.723,VALID,0.100563,VALID,23.6239,VALID,6,VALID,0,
2011-01-16, 02:48:04,VALID,1000.74,VALID,0,INVALID,163.723,VALID,0,VALID,23.585,VALID,6,VALID,0,
2011-01-16, 02:49:04,VALID,1000.77,VALID,0,INVALID,163.739,VALID,0,VALID,23.5266,VALID,6,VALID,0,
2011-01-16, 02:50:04,VALID,1000.77,VALID,0,INVALID,163.723,VALID,0,VALID,23.4877,VALID,6,VALID,0,
2011-01-16, 02:51:04,VALID,1000.76,VALID,0,INVALID,163.754,VALID,0.100563,VALID,23.5071,VALID,6,VALID,0,
2011-01-16, 02:52:04,VALID,1000.8,VALID,0,INVALID,163.754,VALID,0.100563,VALID,23.5071,VALID,6,VALID,0,
2011-01-16, 02:53:04,VALID,1000.8,VALID,0,INVALID,163.739,VALID,0.100563,VALID,23.5284,VALID,6,VALID,0,
2011-01-16, 02:54:04,VALID,1000.79,VALID,0,INVALID,163.731,VALID,0,VALID,23.5071,VALID,6,VALID,0,
2011-01-16, 02:55:04,VALID,1000.8,VALID,0,INVALID,163.754,VALID,0.100563,VALID,23.546,VALID,6,VALID,0,
2011-01-16, 02:56:04,VALID,1000.77,VALID,0,INVALID,163.754,VALID,0,VALID,23.5655,VALID,6,VALID,0,
2011-01-16, 02:57:04,VALID,1000.79,VALID,0,INVALID,163.762,VALID,0,VALID,23.5655,VALID,6,VALID,0,
2011-01-16, 02:58:04,VALID,1000.78,VALID,0,INVALID,163.754,VALID,0,VALID,23.5655,VALID,6,VALID,0,
2011-01-16, 02:59:04,VALID,1000.76,VALID,0,INVALID,163.708,VALID,0,VALID,23.6062,VALID,6,VALID,0,
2011-01-16, 03:00:04,VALID,1000.76,VALID,0,INVALID,163.723,VALID,0,VALID,23.585,VALID,6,VALID,0,
2011-01-16, 03:01:04,VALID,1000.79,VALID,0,INVALID,163.739,VALID,0,VALID,23.6062,VALID,6,VALID,0,
2011-01-16, 03:02:04,VALID,1000.76,VALID,0,INVALID,163.731,VALID,0,VALID,23.585,VALID,6,VALID,0,
2011-01-16, 03:03:04,VALID,1000.74,VALID,0,INVALID,163.731,VALID,0,VALID,23.6239,VALID,6,VALID,0,
2011-01-16, 03:04:04,VALID,1000.72,VALID,0,INVALID,163.731,VALID,0,VALID,23.6239,VALID,6,VALID,0.315625,
2011-01-16, 03:05:04,VALID,1000.72,VALID,0,INVALID,163.716,VALID,0,VALID,23.6239,VALID,6,VALID,0.358594,
2011-01-16, 03:06:04,VALID,1000.7,VALID,0,INVALID,163.716,VALID,0,VALID,23.6628,VALID,6,VALID,0.384766,
2011-01-16, 03:07:04,VALID,1000.73,VALID,0,INVALID,163.708,VALID,0,VALID,23.6628,VALID,6,VALID,0.403125,
2011-01-16, 03:08:04,VALID,1000.7,VALID,0,INVALID,163.723,VALID,0,VALID,23.661,VALID,6,VALID,0.219531,
2011-01-16, 03:09:04,VALID,1000.71,VALID,0,INVALID,163.739,VALID,0,VALID,23.7017,VALID,6,VALID,0.117188,
2011-01-16, 03:10:04,VALID,1000.71,VALID,0,INVALID,163.723,VALID,0,VALID,23.7212,VALID,6,VALID,0.0691406,
2011-01-16, 03:11:04,VALID,1000.73,VALID,0,INVALID,163.708,VALID,0,VALID,23.7407,VALID,6,VALID,0.0898438,
2011-01-16, 03:12:04,VALID,1000.74,VALID,0,INVALID,163.731,VALID,0,VALID,23.7389,VALID,6,VALID,0.0449219,
2011-01-16, 03:13:04,VALID,1000.72,VALID,0,INVALID,163.723,VALID,0,VALID,23.7991,VALID,343,VALID,0.532812,
2011-01-16, 03:14:04,VALID,1000.73,VALID,0,INVALID,163.716,VALID,0,VALID,23.838,VALID,344,VALID,0.445313,
2011-01-16, 03:15:04,VALID,1000.73,VALID,0,INVALID,163.731,VALID,0,VALID,23.8575,VALID,345,VALID,0.546875,
2011-01-16, 03:16:04,VALID,1000.71,VALID,0,INVALID,163.731,VALID,0,VALID,23.8982,VALID,344,VALID,0.468359,
2011-01-16, 03:17:04,VALID,1000.72,VALID,0,INVALID,163.739,VALID,0,VALID,23.8769,VALID,344,VALID,0.298438,
2011-01-16, 03:18:04,VALID,1000.72,VALID,0,INVALID,163.685,VALID,0,VALID,23.8964,VALID,344,VALID,0.246875,
2011-01-16, 03:19:04,VALID,1000.7,VALID,0,INVALID,163.731,VALID,0,VALID,23.8982,VALID,344,VALID,0.0382813,
2011-01-16, 03:20:04,VALID,1000.7,VALID,0,INVALID,163.708,VALID,0,VALID,23.8964,VALID,344,VALID,0.0597656,
2011-01-16, 03:21:04,VALID,1000.7,VALID,0,INVALID,163.708,VALID,0,VALID,23.9159,VALID,344,VALID,0.496875,
2011-01-16, 03:22:04,VALID,1000.68,VALID,0,INVALID,163.701,VALID,0.100563,VALID,23.9159,VALID,345,VALID,0.497656,
2011-01-16, 03:23:04,VALID,1000.68,VALID,0,INVALID,163.708,VALID,0.100563,VALID,23.9548,VALID,344,VALID,0.00585938,
2011-01-16, 03:24:04,VALID,1000.68,VALID,0,INVALID,163.685,VALID,0,VALID,23.9742,VALID,344,VALID,0,
2011-01-16, 03:25:04,VALID,1000.68,VALID,0,INVALID,163.716,VALID,0,VALID,23.9742,VALID,344,VALID,0.320703,
2011-01-16, 03:26:04,VALID,1000.71,VALID,0,INVALID,163.693,VALID,0,VALID,23.9742,VALID,344,VALID,0.275781,
2011-01-16, 03:27:04,VALID,1000.71,VALID,0,INVALID,163.701,VALID,0,VALID,23.9742,VALID,344,VALID,0,
2011-01-16, 03:28:04,VALID,1000.71,VALID,0,INVALID,163.685,VALID,0,VALID,23.9742,VALID,344,VALID,0,
2011-01-16, 03:29:04,VALID,1000.72,VALID,0,INVALID,163.693,VALID,0,VALID,24.015,VALID,344,VALID,0,
2011-01-16, 03:30:04,VALID,1000.71,VALID,0,INVALID,163.693,VALID,0,VALID,24.015,VALID,344,VALID,0,
2011-01-16, 03:31:04,VALID,1000.74,VALID,0,INVALID,163.708,VALID,0,VALID,24.0132,VALID,344,VALID,0,
2011-01-16, 03:32:04,VALID,1000.73,VALID,0,INVALID,163.685,VALID,0,VALID,24.0132,VALID,344,VALID,0,
2011-01-16, 03:33:04,VALID,1000.69,VALID,0,INVALID,163.67,VALID,0,VALID,24.0132,VALID,344,VALID,0,
2011-01-16, 03:34:04,VALID,1000.67,VALID,0,INVALID,163.693,VALID,0,VALID,24.0326,VALID,344,VALID,0,
2011-01-16, 03:35:04,VALID,1000.64,VALID,0,INVALID,163.678,VALID,0,VALID,24.0326,VALID,344,VALID,0,
2011-01-16, 03:36:04,VALID,1000.64,VALID,0,INVALID,163.693,VALID,0,VALID,24.0345,VALID,344,VALID,0,
2011-01-16, 03:37:05,VALID,1000.63,VALID,0,INVALID,163.693,VALID,0,VALID,24.0345,VALID,344,VALID,0.387109,
2011-01-16, 03:38:05,VALID,1000.6,VALID,0,INVALID,163.716,VALID,0,VALID,23.9742,VALID,344,VALID,0.433594,
2011-01-16, 03:39:05,VALID,1000.64,VALID,0,INVALID,163.731,VALID,0,VALID,23.9566,VALID,344,VALID,0.300781,
2011-01-16, 03:40:05,VALID,1000.61,VALID,0,INVALID,163.731,VALID,0,VALID,23.9566,VALID,344,VALID,0.259375,
2011-01-16, 03:41:05,VALID,1000.64,VALID,0,INVALID,163.701,VALID,0,VALID,23.9566,VALID,344,VALID,0.239844,
2011-01-16, 03:42:05,VALID,1000.64,VALID,0,INVALID,163.716,VALID,0,VALID,23.9159,VALID,344,VALID,0.265625,
2011-01-16, 03:43:05,VALID,1000.66,VALID,0,INVALID,163.708,VALID,0,VALID,23.9177,VALID,344,VALID,0.271484,
2011-01-16, 03:44:05,VALID,1000.68,VALID,0,INVALID,163.693,VALID,0,VALID,23.8769,VALID,344,VALID,0.267578,